Weather History for KLJF - October, 2012

Change the Weather History Date:

Sunday, October 28, 2012

  Actual Average Record
Temperature  
Mean Temperature 37 °F -  
Max Temperature 46 °F 54 °F 74 °F (1983)
Min Temperature 28 °F 33 °F 15 °F (1967)
Degree Days  
Heating Degree Days 28    
Moisture  
Dew Point 26 °F    
Average Humidity 66    
Maximum Humidity 75    
Minimum Humidity 49    
Precipitation  
Precipitation 0.00 in - - ()
Sea Level Pressure  
Sea Level Pressure 30.28 in    
Wind  
Wind Speed 4 mph (SSE)    
Max Wind Speed 9 mph    
Max Gust Speed 16 mph    
Visibility 10 miles    
Events Rain , Snow    
Averages and records for this station are not official NWS values.
T = Trace of Precipitation, MM = Missing Value Source: NWS Daily Summary

Daily Weather History Graph

Daily Weather History Graph

Search for Another Location

Airport or City:

Trip Planner

Search our weather history database for the weather conditions in past years. The results will help you decide how hot, cold, wet, or windy it might be!

Date:

Astronomy

Oct. 28, 2012 Rise Set
Actual Time 7:51 AM CDT 6:10 PM CDT
Civil Twilight 7:21 AM CDT 6:41 PM CDT
Nautical Twilight 6:46 AM CDT 7:15 PM CDT
Astronomical Twilight 6:12 AM CDT 7:49 PM CDT
Moon 5:29 PM CDT (10/28) 6:44 AM CDT (10/28)
Length of Visible Light 11h 19m
Length of Day
10h 19m
Waxing Gibbous, 99% of the Moon is Illuminated
Oct 28
Waxing Gibbous
Oct 29
Full
Nov 6
Last Quarter
Nov 13
New
Nov 20
First Quarter

Hourly Weather History & Observations

Time (CDT) Temp. Windchill Dew Point Humidity Pressure Visibility Wind Dir Wind Speed Gust Speed Precip Events Conditions
12:13 AM 28.4 °F 23.3 °F 19.4 °F 69% 30.31 in 10.0 mi SE 4.6 mph - N/A   Mostly Cloudy
1:13 AM 28.4 °F - 21.2 °F 74% 30.31 in 10.0 mi Calm Calm - N/A   Overcast
1:33 AM 32.0 °F 28.7 °F 24.8 °F 75% 30.31 in 10.0 mi SSE 3.5 mph - N/A   Overcast
1:53 AM 32.0 °F 28.7 °F 24.8 °F 75% 30.31 in 10.0 mi SSE 3.5 mph - N/A   Overcast
2:13 AM 32.0 °F 28.7 °F 24.8 °F 75% 30.30 in 10.0 mi SSE 3.5 mph - N/A   Overcast
2:33 AM 32.0 °F - 24.8 °F 75% 30.30 in 10.0 mi Calm Calm - N/A   Overcast
2:53 AM 32.0 °F 28.7 °F 24.8 °F 75% 30.30 in 10.0 mi SSE 3.5 mph - N/A   Overcast
3:13 AM 32.0 °F 28.7 °F 24.8 °F 75% 30.29 in 10.0 mi SSE 3.5 mph - N/A   Overcast
3:33 AM 32.0 °F - 24.8 °F 75% 30.29 in 10.0 mi Calm Calm - N/A   Overcast
3:53 AM 32.0 °F 28.7 °F 24.8 °F 75% 30.29 in 10.0 mi South 3.5 mph - N/A   Overcast
4:13 AM 32.0 °F 28.7 °F 24.8 °F 75% 30.29 in 10.0 mi SSE 3.5 mph - N/A   Overcast
4:33 AM 32.0 °F 28.7 °F 24.8 °F 75% 30.28 in 10.0 mi SSE 3.5 mph - N/A   Overcast
4:53 AM 30.2 °F - 23.0 °F 75% 30.29 in 10.0 mi Calm Calm - N/A   Overcast
5:13 AM 30.2 °F - 23.0 °F 75% 30.29 in 10.0 mi Calm Calm - N/A   Overcast
5:33 AM 30.2 °F - 23.0 °F 75% 30.29 in 10.0 mi Calm Calm - N/A   Overcast
5:53 AM 30.2 °F - 23.0 °F 75% 30.29 in 10.0 mi Calm Calm - N/A   Overcast
6:13 AM 32.0 °F 28.7 °F 24.8 °F 75% 30.29 in 10.0 mi SSE 3.5 mph - N/A   Overcast
6:33 AM 32.0 °F - 24.8 °F 75% 30.29 in 10.0 mi Calm Calm - N/A   Overcast
6:53 AM 32.0 °F - 24.8 °F 75% 30.30 in 10.0 mi Calm Calm - N/A   Overcast
7:13 AM 32.0 °F - 24.8 °F 75% 30.30 in 10.0 mi Calm Calm - N/A   Overcast
7:33 AM 32.0 °F - 24.8 °F 75% 30.30 in 10.0 mi Calm Calm - N/A   Overcast
7:53 AM 32.0 °F - 24.8 °F 75% 30.30 in 10.0 mi Calm Calm - N/A   Overcast
8:13 AM 32.0 °F 28.7 °F 24.8 °F 75% 30.31 in 10.0 mi SSE 3.5 mph - N/A   Overcast
8:33 AM 33.8 °F - 24.8 °F 70% 30.31 in 10.0 mi Calm Calm - N/A   Overcast
8:53 AM 33.8 °F 30.8 °F 26.6 °F 75% 30.31 in 10.0 mi South 3.5 mph - N/A   Overcast
9:13 AM 33.8 °F 30.8 °F 26.6 °F 75% 30.31 in 7.0 mi SSE 3.5 mph - N/A Snow Light Snow
9:53 AM 33.8 °F - 26.6 °F 75% 30.31 in 10.0 mi Calm Calm - N/A Snow Light Snow
10:13 AM 33.8 °F - 26.6 °F 75% 30.31 in 10.0 mi Calm Calm - N/A Rain Light Rain
10:33 AM 33.8 °F - 26.6 °F 75% 30.31 in 5.0 mi Calm Calm - N/A Snow Light Snow
10:53 AM 33.8 °F 29.6 °F 26.6 °F 75% 30.31 in 7.0 mi SSE 4.6 mph - N/A Snow Light Snow
11:13 AM 35.6 °F 31.7 °F 28.4 °F 75% 30.31 in 10.0 mi SSE 4.6 mph - N/A   Overcast
11:33 AM 35.6 °F 29.9 °F 28.4 °F 75% 30.30 in 10.0 mi SSE 6.9 mph - N/A   Overcast
12:13 PM 41.0 °F 37.1 °F 30.2 °F 65% 30.29 in 10.0 mi SSE 5.8 mph - N/A   Mostly Cloudy
12:33 PM 42.8 °F 38.6 °F 28.4 °F 57% 30.28 in 10.0 mi SSE 6.9 mph - N/A   Scattered Clouds
12:53 PM 44.6 °F 40.7 °F 28.4 °F 53% 30.28 in 10.0 mi SSE 6.9 mph - N/A   Clear
1:13 PM 44.6 °F 40.7 °F 26.6 °F 49% 30.28 in 10.0 mi SSE 6.9 mph - N/A   Scattered Clouds
1:33 PM 44.6 °F 40.2 °F 28.4 °F 53% 30.27 in 10.0 mi SSE 8.1 mph - N/A   Mostly Cloudy
1:53 PM 44.6 °F 39.7 °F 26.6 °F 49% 30.27 in 10.0 mi SSE 9.2 mph - N/A   Mostly Cloudy
2:13 PM 44.6 °F 40.7 °F 26.6 °F 49% 30.26 in 10.0 mi SSE 6.9 mph 16.1 mph N/A   Mostly Cloudy
2:33 PM 44.6 °F 40.2 °F 26.6 °F 49% 30.26 in 10.0 mi SSE 8.1 mph - N/A   Mostly Cloudy
2:53 PM 44.6 °F 40.7 °F 26.6 °F 49% 30.26 in 10.0 mi SSE 6.9 mph - N/A   Mostly Cloudy
3:13 PM 44.6 °F 39.7 °F 28.4 °F 53% 30.25 in 10.0 mi SSE 9.2 mph - N/A   Mostly Cloudy
3:33 PM 44.6 °F 40.7 °F 28.4 °F 53% 30.25 in 10.0 mi SSE 6.9 mph - N/A   Mostly Cloudy
3:53 PM 46.4 °F 42.4 °F 28.4 °F 50% 30.25 in 10.0 mi SSE 8.1 mph - N/A   Scattered Clouds
4:13 PM 44.6 °F 41.4 °F 28.4 °F 53% 30.24 in 10.0 mi SSE 5.8 mph - N/A   Mostly Cloudy
4:33 PM 44.6 °F 40.2 °F 28.4 °F 53% 30.24 in 10.0 mi SSE 8.1 mph - N/A   Mostly Cloudy
4:53 PM 44.6 °F 41.4 °F 28.4 °F 53% 30.24 in 10.0 mi SSE 5.8 mph - N/A   Mostly Cloudy
5:13 PM 44.6 °F 41.4 °F 28.4 °F 53% 30.24 in 10.0 mi SE 5.8 mph - N/A   Overcast
5:33 PM 42.8 °F 38.0 °F 28.4 °F 57% 30.24 in 10.0 mi SE 8.1 mph - N/A   Mostly Cloudy
5:53 PM 42.8 °F 38.6 °F 28.4 °F 57% 30.24 in 10.0 mi SE 6.9 mph - N/A   Mostly Cloudy
6:13 PM 42.8 °F 39.3 °F 28.4 °F 57% 30.25 in 10.0 mi SE 5.8 mph - N/A   Overcast
6:33 PM 41.0 °F 38.0 °F 28.4 °F 61% 30.25 in 10.0 mi SE 4.6 mph - N/A   Mostly Cloudy
6:52 PM 41.0 °F 36.4 °F 28.4 °F 61% 30.25 in 10.0 mi SE 6.9 mph - N/A   Mostly Cloudy
7:13 PM 39.2 °F 35.9 °F 28.4 °F 65% 30.25 in 10.0 mi ESE 4.6 mph - N/A   Overcast
7:33 PM 39.2 °F 35.0 °F 28.4 °F 65% 30.26 in 10.0 mi East 5.8 mph - N/A   Overcast
7:52 PM 39.2 °F 34.2 °F 28.4 °F 65% 30.26 in 10.0 mi ESE 6.9 mph - N/A   Overcast
8:13 PM 39.2 °F 34.2 °F 30.2 °F 70% 30.26 in 10.0 mi SE 6.9 mph - N/A   Overcast
8:33 PM 39.2 °F 33.6 °F 28.4 °F 65% 30.25 in 10.0 mi SE 8.1 mph - N/A   Overcast
8:53 PM 41.0 °F 35.8 °F 28.4 °F 61% 30.25 in 10.0 mi SE 8.1 mph - N/A   Overcast
9:13 PM 41.0 °F 35.8 °F 28.4 °F 61% 30.25 in 10.0 mi SE 8.1 mph - N/A   Overcast
9:33 PM 41.0 °F 35.8 °F 28.4 °F 61% 30.26 in 10.0 mi SE 8.1 mph - N/A   Overcast
9:53 PM 39.2 °F 33.6 °F 26.6 °F 61% 30.26 in 10.0 mi SE 8.1 mph - N/A   Mostly Cloudy
10:13 PM 37.4 °F 31.4 °F 26.6 °F 65% 30.26 in 10.0 mi SE 8.1 mph - N/A   Clear
10:33 PM 37.4 °F 32.1 °F 26.6 °F 65% 30.26 in 10.0 mi SE 6.9 mph - N/A   Clear
10:53 PM 37.4 °F 32.8 °F 26.6 °F 65% 30.26 in 10.0 mi SSE 5.8 mph - N/A   Mostly Cloudy
11:13 PM 37.4 °F 32.1 °F 26.6 °F 65% 30.27 in 10.0 mi SE 6.9 mph - N/A   Overcast
11:53 PM 37.4 °F 31.4 °F 26.6 °F 65% 30.26 in 10.0 mi SSE 8.1 mph - N/A   Overcast